Flag for U.S.A. Weather past 2 weeks in Evansville, Indiana, U.S.A.

Now
66 °F

Clear.


Feels Like: 66 °F
Forecast: 57 / 83 °F
Wind: 6 mph from Northeast

Location: Evansville Regional Airport

Current Time: Sep 30, 2014 at 11:33:40 PM

Latest Report: Sep 30, 2014 at 10:54 PM


Visibility: 10 mi

Pressure: 29.92 "Hg

Humidity: 81%

Dew point: 60 °F

Location of EvansvilleLocation

Historic Weather in Evansville — Graph

°F

Evansville temperature yesterday

Maximum temperature yesterday: 87 °F (at 3:54 PM)
Minimum temperature yesterday: 60 °F (at 6:54 AM)
Average temperature yesterday: 72 °F

Past Weeks' High & Low Weather Summary

 TemperatureHumidityPressure
High87 °F (Sep 29, 3:54 PM)93% (Sep 17, 12:54 AM)30.33 "Hg (Sep 17, 12:54 AM)
Low46 °F (Sep 17, 6:54 AM)27% (Sep 29, 3:54 PM)29.87 "Hg (Sep 30, 4:54 PM)
Average67 °F68%30.10 "Hg
* Reported Sep 15 9:54 PM — Sep 30 9:54 PM, Evansville, Weather by CustomWeather, © 2014

Note: Actual official high and low records may vary slightly from our data, if they occured in-between our weather recording intervals... More about our weather records

Advertising

Evansville weather history for previous 24 hours

 ConditionsComfort  
Time TempWeatherWind HumidityBarometerVisibility
9:54 PM
Sep 30
69 °FClear.5 mph73%29.91 "Hg10 mi
8:54 PM71 °FClear.5 mph68%29.91 "Hg10 mi
7:54 PM73 °FClear.3 mph64%29.90 "Hg10 mi
6:54 PM75 °FClear.No wind58%29.89 "Hg10 mi
5:54 PM81 °FSunny.5 mph45%29.88 "Hg10 mi
4:54 PM84 °FSunny.3 mph38%29.87 "Hg10 mi
3:54 PM83 °FSunny.7 mph37%29.88 "Hg10 mi
2:54 PM85 °FSunny.5 mph34%29.88 "Hg10 mi
1:54 PM86 °FPartly sunny.7 mph33%29.90 "Hg10 mi
12:54 PM84 °FSunny.9 mph38%29.92 "Hg10 mi
11:54 AM81 °FSunny.6 mph45%29.94 "Hg10 mi
10:54 AM79 °FSunny.No wind50%29.95 "Hg10 mi
9:54 AM74 °FSunny.3 mph57%29.96 "Hg10 mi
8:54 AM68 °FSunny.No wind73%29.95 "Hg10 mi
7:54 AM61 °FSunny.No wind83%29.95 "Hg8 mi
6:54 AM57 °FSunny.No wind90%29.95 "Hg10 mi
5:54 AM58 °FClear.No wind87%29.94 "Hg10 mi
4:54 AM58 °FClear.No wind90%29.93 "Hg10 mi
3:54 AM59 °FClear.No wind87%29.93 "Hg10 mi
2:54 AM60 °FClear.No wind86%29.93 "Hg10 mi
1:54 AM60 °FClear.No wind86%29.94 "Hg10 mi
12:54 AM61 °FClear.No wind87%29.94 "Hg8 mi
11:54 PM
Sep 29
62 °FClear.No wind83%29.94 "Hg10 mi
Weather by CustomWeather, © 2014

See weather overviewHow to use our weather pages